Rome Ciampino, Italy

3:22 PM CEST on July 24, 2016 (GMT +0200)
Ciampino

Weather History for LIRA - January, 2012

Change the Weather History Date:

Monday, January 16, 2012

  Actual Average Record
Temperature  
Mean Temperature 40 °F -  
Max Temperature 50 °F 54 °F 60 °F (2015)
Min Temperature 30 °F 38 °F 30 °F (2002)
Degree Days  
Heating Degree Days 25    
Moisture  
Dew Point 28 °F    
Average Humidity 66    
Maximum Humidity 87    
Minimum Humidity 32    
Precipitation  
Precipitation 0.00 in 0.13 in - ()
Sea Level Pressure  
Sea Level Pressure 30.10 in    
Wind  
Wind Speed 2 mph ()    
Max Wind Speed 6 mph    
Max Gust Speed -    
Visibility 6.2 miles    
Events      
Averages and records for this station are not official NWS values.
T = Trace of Precipitation, MM = Missing Value Source: Averaged Metar Reports

Daily Weather History Graph

Daily Weather History Graph

Search for Another Location

Airport or City:

Trip Planner

Search our weather history database for the weather conditions in past years. The results will help you decide how hot, cold, wet, or windy it might be!

Date:

Astronomy

Jan. 16, 2012 Rise Set
Actual Time 7:34 AM CET 5:04 PM CET
Civil Twilight 7:03 AM CET 5:34 PM CET
Nautical Twilight 6:29 AM CET 6:09 PM CET
Astronomical Twilight 5:56 AM CET 6:42 PM CET
Moon 12:21 AM CET (1/16) 11:09 AM CET (1/16)
Length of Visible Light 10h 31m
Length of Day
9h 29m
Waning Gibbous, 49% of the Moon is Illuminated
Jan 16
Waning Gibbous
Jan 23
New
Jan 31
First Quarter
Feb 7
Full
Feb 14
Last Quarter

Hourly Weather History & Observations

Time (CET) Temp. Windchill Dew Point Humidity Pressure Visibility Wind Dir Wind Speed Gust Speed Precip Events Conditions
12:15 AM 37.4 °F - 30.2 °F 75% 30.06 in - Calm Calm - N/A   Clear
12:45 AM 35.6 °F - 30.2 °F 81% 30.06 in 6.2 mi East 2.3 mph - N/A   Partly Cloudy
1:15 AM 35.6 °F 32.8 °F 30.2 °F 81% 30.06 in 6.2 mi East 3.5 mph - N/A   Partly Cloudy
1:45 AM 37.4 °F - 30.2 °F 75% 30.06 in 6.2 mi North 1.2 mph - N/A   Partly Cloudy
2:15 AM 37.4 °F - 28.4 °F 70% 30.06 in 6.2 mi NNW 2.3 mph - N/A   Partly Cloudy
2:45 AM 33.8 °F - 28.4 °F 81% 30.06 in 6.2 mi ESE 2.3 mph - N/A   Partly Cloudy
3:15 AM 33.8 °F - 26.6 °F 75% 30.06 in 6.2 mi East 1.2 mph - N/A   Partly Cloudy
3:45 AM 32.0 °F - 28.4 °F 87% 30.06 in 6.2 mi North 2.3 mph - N/A   Partly Cloudy
4:15 AM 32.0 °F - 28.4 °F 87% 30.06 in - NNE 1.2 mph - N/A   Clear
4:45 AM 32.0 °F - 28.4 °F 87% 30.06 in - NNE 2.3 mph - N/A   Clear
5:15 AM 32.0 °F - 28.4 °F 87% 30.06 in - NE 2.3 mph - N/A   Clear
5:45 AM 32.0 °F - 28.4 °F 87% 30.06 in - NNE 2.3 mph - N/A   Clear
6:15 AM 32.0 °F - 26.6 °F 80% 30.06 in - Calm Calm - N/A   Clear
6:45 AM 32.0 °F - 26.6 °F 80% 30.06 in - NE 1.2 mph - N/A   Clear
7:15 AM 32.0 °F - 26.6 °F 80% 30.06 in - Calm Calm - N/A   Clear
7:45 AM 32.0 °F - 26.6 °F 80% 30.06 in 6.2 mi NE 2.3 mph - N/A   Partly Cloudy
8:15 AM 30.2 °F - 26.6 °F 86% 30.09 in 6.2 mi NE 2.3 mph - N/A   Partly Cloudy
8:45 AM 32.0 °F - 28.4 °F 87% 30.09 in 6.2 mi NE 2.3 mph - N/A   Partly Cloudy
9:15 AM 33.8 °F - 30.2 °F 87% 30.09 in 6.2 mi NNE 1.2 mph - N/A   Partly Cloudy
9:45 AM 37.4 °F 34.9 °F 30.2 °F 75% 30.09 in 6.2 mi North 3.5 mph - N/A   Partly Cloudy
10:15 AM 39.2 °F 37.0 °F 30.2 °F 70% 30.09 in 6.2 mi North 3.5 mph - N/A   Partly Cloudy
10:45 AM 42.8 °F 40.1 °F 32.0 °F 66% 30.09 in 6.2 mi North 4.6 mph - N/A   Partly Cloudy
11:15 AM 46.4 °F 45.2 °F 32.0 °F 57% 30.09 in 6.2 mi SW 3.5 mph - N/A   Partly Cloudy
11:45 AM 46.4 °F 45.2 °F 28.4 °F 50% 30.09 in 6.2 mi West 3.5 mph - N/A   Partly Cloudy
12:15 PM 48.2 °F - 30.2 °F 50% 30.09 in 6.2 mi West 3.5 mph - N/A   Partly Cloudy
12:45 PM 50.0 °F - 26.6 °F 40% 30.09 in 6.2 mi SSW 4.6 mph - N/A   Partly Cloudy
1:15 PM 50.0 °F - 24.8 °F 37% 30.09 in 6.2 mi SW 5.8 mph - N/A   Partly Cloudy
1:45 PM 50.0 °F - 23.0 °F 35% 30.09 in 6.2 mi NW 2.3 mph - N/A   Scattered Clouds
2:15 PM 50.0 °F - 23.0 °F 35% 30.09 in 6.2 mi WSW 4.6 mph - N/A   Scattered Clouds
2:45 PM 50.0 °F - 21.2 °F 32% 30.09 in 6.2 mi West 4.6 mph - N/A   Scattered Clouds
3:15 PM 50.0 °F - 21.2 °F 32% 30.09 in 6.2 mi North 1.2 mph - N/A   Scattered Clouds
3:45 PM 48.2 °F - 21.2 °F 34% 30.09 in 6.2 mi Calm Calm - N/A   Scattered Clouds
4:15 PM 48.2 °F - 23.0 °F 37% 30.09 in 6.2 mi NW 1.2 mph - N/A   Partly Cloudy
4:45 PM 48.2 °F - 24.8 °F 40% 30.09 in 6.2 mi WSW 2.3 mph - N/A   Partly Cloudy
5:15 PM 46.4 °F - 26.6 °F 46% 30.12 in 6.2 mi SSW 2.3 mph - N/A   Partly Cloudy
5:45 PM 42.8 °F 41.1 °F 28.4 °F 57% 30.12 in 6.2 mi SE 3.5 mph - N/A   Partly Cloudy
6:15 PM 44.6 °F - 30.2 °F 57% 30.12 in 6.2 mi South 2.3 mph - N/A   Partly Cloudy
6:45 PM 41.0 °F - 26.6 °F 57% 30.12 in 6.2 mi SE 1.2 mph - N/A   Partly Cloudy
7:15 PM 41.0 °F 39.0 °F 30.2 °F 65% 30.15 in 6.2 mi ESE 3.5 mph - N/A   Partly Cloudy
7:45 PM 41.0 °F - 30.2 °F 65% 30.15 in 6.2 mi ENE 2.3 mph - N/A   Partly Cloudy
8:15 PM 39.2 °F 35.9 °F 30.2 °F 70% 30.18 in 6.2 mi East 4.6 mph - N/A   Partly Cloudy
8:45 PM 41.0 °F 38.0 °F 32.0 °F 70% 30.18 in 6.2 mi East 4.6 mph - N/A   Partly Cloudy
9:15 PM 37.4 °F - 28.4 °F 70% 30.18 in 6.2 mi NE 2.3 mph - N/A   Partly Cloudy
9:45 PM 39.2 °F 37.0 °F 30.2 °F 70% 30.18 in 6.2 mi NE 3.5 mph - N/A   Partly Cloudy
10:15 PM 39.2 °F 35.9 °F 30.2 °F 70% 30.18 in - NE 4.6 mph - N/A   Clear
10:45 PM 37.4 °F 34.9 °F 28.4 °F 70% 30.21 in - NE 3.5 mph - N/A   Clear
11:15 PM 37.4 °F 33.8 °F 28.4 °F 70% 30.21 in - NE 4.6 mph - N/A   Clear
11:45 PM 33.8 °F 28.6 °F 26.6 °F 75% 30.21 in - ENE 5.8 mph - N/A   Clear